�������l�o���
Date,Time,MP-1(��Sv/h),MP-2(��Sv/h),MP-3(��Sv/h),MP-4(��Sv/h),MP-5(��Sv/h),MP-6(��Sv/h),MP-7(��Sv/h),MP-8(��Sv/h),����,����(m/s),���J
2018/03/06,00:00,0.824,1.362,0.863,1.598,1.077,0.475,0.834,0.801,�k,8.0,�L
2018/03/06,00:10,0.824,1.363,0.862,1.600,1.077,0.474,0.835,0.804,�k,7.5,�L
2018/03/06,00:20,0.826,1.365,0.864,1.600,1.075,0.473,0.833,0.803,�k,7.9,�L
2018/03/06,00:30,0.827,1.368,0.863,1.601,1.080,0.473,0.833,0.802,�k,6.6,�L
2018/03/06,00:40,0.828,1.368,0.864,1.604,1.080,0.474,0.834,0.803,�k,6.4,�L
2018/03/06,00:50,0.827,1.368,0.860,1.602,1.078,0.471,0.832,0.805,�k,6.5,��
2018/03/06,01:00,0.826,1.370,0.863,1.602,1.082,0.471,0.835,0.803,�k,6.3,��
2018/03/06,01:10,0.826,1.372,0.860,1.604,1.083,0.470,0.833,0.804,�k,4.5,�L
2018/03/06,01:20,0.826,1.369,0.861,1.605,1.083,0.470,0.834,0.804,�k,4.0,��
2018/03/06,01:30,0.824,1.371,0.860,1.604,1.082,0.468,0.835,0.802,�k�k��,3.6,��
2018/03/06,01:40,0.826,1.372,0.862,1.605,1.084,0.467,0.833,0.805,�k�k��,3.3,��
2018/03/06,01:50,0.824,1.373,0.863,1.606,1.082,0.468,0.832,0.804,�k�k��,3.6,��
2018/03/06,02:00,0.826,1.374,0.861,1.604,1.085,0.470,0.834,0.802,�k�k��,4.4,��
2018/03/06,02:10,0.825,1.375,0.860,1.605,1.086,0.468,0.834,0.804,�k�k��,5.5,��
2018/03/06,02:20,0.825,1.375,0.862,1.608,1.085,0.469,0.835,0.803,�k,6.5,��
2018/03/06,02:30,0.825,1.377,0.862,1.606,1.086,0.469,0.833,0.803,�k,6.4,��
2018/03/06,02:40,0.826,1.378,0.861,1.606,1.085,0.470,0.834,0.803,�k�k��,5.3,��
2018/03/06,02:50,0.823,1.373,0.861,1.609,1.086,0.468,0.835,0.803,�k,6.3,��
2018/03/06,03:00,0.824,1.373,0.862,1.606,1.083,0.467,0.835,0.805,�k�k��,4.9,��
2018/03/06,03:10,0.823,1.376,0.861,1.609,1.085,0.468,0.834,0.805,�k,6.9,��
2018/03/06,03:20,0.826,1.376,0.860,1.607,1.086,0.467,0.836,0.803,�k,7.1,��
2018/03/06,03:30,0.825,1.375,0.863,1.608,1.087,0.467,0.835,0.806,�k,7.3,��
2018/03/06,03:40,0.825,1.377,0.864,1.607,1.087,0.467,0.836,0.804,�k,8.8,��
2018/03/06,03:50,0.822,1.378,0.863,1.610,1.086,0.468,0.836,0.804,�k,8.9,��
2018/03/06,04:00,0.827,1.376,0.863,1.607,1.087,0.468,0.835,0.803,�k,8.7,��
2018/03/06,04:10,0.824,1.377,0.863,1.610,1.088,0.467,0.834,0.805,�k,9.5,��
2018/03/06,04:20,0.827,1.377,0.862,1.613,1.087,0.467,0.834,0.804,�k,9.0,��
2018/03/06,04:30,0.824,1.378,0.864,1.611,1.088,0.469,0.834,0.805,�k,8.6,��
2018/03/06,04:40,0.826,1.377,0.863,1.610,1.090,0.467,0.833,0.805,�k,8.8,��
2018/03/06,04:50,0.825,1.376,0.865,1.611,1.088,0.469,0.835,0.805,�k,7.8,��
2018/03/06,05:00,0.826,1.379,0.864,1.612,1.091,0.468,0.835,0.805,�k,9.2,��
2018/03/06,05:10,0.825,1.378,0.863,1.612,1.090,0.467,0.835,0.805,�k,6.8,��
2018/03/06,05:20,0.824,1.381,0.862,1.613,1.091,0.467,0.835,0.805,�k,8.1,��
2018/03/06,05:30,0.824,1.380,0.863,1.609,1.091,0.467,0.835,0.803,�k,9.5,��
2018/03/06,05:40,0.825,1.381,0.864,1.609,1.090,0.468,0.837,0.804,�k,9.7,��
2018/03/06,05:50,0.827,1.379,0.863,1.612,1.091,0.469,0.835,0.805,�k,9.5,��
2018/03/06,06:00,0.827,1.382,0.863,1.614,1.092,0.468,0.835,0.805,�k,8.8,��
2018/03/06,06:10,0.824,1.380,0.862,1.612,1.093,0.469,0.837,0.806,�k,8.3,��
2018/03/06,06:20,0.825,1.383,0.864,1.613,1.092,0.467,0.835,0.804,�k,9.3,��
2018/03/06,06:30,0.826,1.380,0.865,1.614,1.094,0.468,0.836,0.804,�k,7.8,��
2018/03/06,06:40,0.825,1.385,0.864,1.613,1.093,0.468,0.835,0.806,�k�k��,7.7,��
2018/03/06,06:50,0.827,1.381,0.864,1.613,1.092,0.465,0.836,0.805,�k�k��,7.1,��
2018/03/06,07:00,0.826,1.380,0.864,1.614,1.094,0.467,0.835,0.805,�k�k��,7.4,��
2018/03/06,07:10,0.826,1.380,0.863,1.612,1.093,0.467,0.836,0.805,�k�k��,6.4,��
2018/03/06,07:20,0.824,1.384,0.866,1.616,1.094,0.466,0.836,0.806,�k,8.0,��
2018/03/06,07:30,0.826,1.386,0.865,1.616,1.090,0.467,0.836,0.805,�k,5.7,��
2018/03/06,07:40,0.827,1.381,0.866,1.616,1.095,0.467,0.836,0.806,�k,4.9,��
2018/03/06,07:50,0.829,1.385,0.864,1.616,1.096,0.468,0.836,0.806,�k,5.4,��
2018/03/06,08:00,0.829,1.386,0.865,1.614,1.094,0.468,0.834,0.806,�k,5.1,��
2018/03/06,08:10,0.828,1.385,0.865,1.619,1.095,0.468,0.837,0.807,�k,5.5,��
2018/03/06,08:20,0.828,1.387,0.864,1.617,1.096,0.469,0.838,0.807,�k,6.2,��
2018/03/06,08:30,0.828,1.388,0.867,1.617,1.098,0.469,0.837,0.806,�k,6.5,��
2018/03/06,08:40,0.829,1.390,0.866,1.616,1.097,0.468,0.839,0.807,�k,5.1,��
2018/03/06,08:50,0.828,1.389,0.865,1.620,1.099,0.470,0.839,0.807,�k,5.8,��
2018/03/06,09:00,0.832,1.389,0.868,1.618,1.100,0.468,0.837,0.808,�k�k��,7.1,��
2018/03/06,09:10,0.832,1.389,0.865,1.618,1.101,0.469,0.836,0.809,�k�k��,9.7,��
2018/03/06,09:20,0.832,1.392,0.868,1.619,1.098,0.470,0.836,0.807,�k�k��,8.6,��
2018/03/06,09:30,0.831,1.391,0.869,1.620,1.093,0.468,0.839,0.808,�k�k��,7.4,��
2018/03/06,09:40,0.832,1.391,0.867,1.622,1.086,0.470,0.838,0.809,�k�k��,7.7,��
2018/03/06,09:50,0.830,1.392,0.868,1.623,1.083,0.470,0.838,0.808,�k�k��,8.2,��
2018/03/06,10:00,0.830,1.391,0.870,1.621,1.082,0.471,0.838,0.810,�k�k��,7.4,��
2018/03/06,10:10,0.832,1.394,0.867,1.625,1.082,0.469,0.839,0.809,�k�k��,9.0,��
2018/03/06,10:20,0.833,1.392,0.867,1.624,1.077,0.470,0.838,0.810,�k,7.2,��
2018/03/06,10:30,0.832,1.393,0.869,1.625,1.086,0.469,0.838,0.807,�k�k��,8.8,��
2018/03/06,10:40,0.834,1.393,0.870,1.626,1.087,0.470,0.838,0.808,�k�k��,9.3,��
2018/03/06,10:50,0.833,1.392,0.869,1.626,1.086,0.471,0.838,0.808,�k�k��,10.2,��
2018/03/06,11:00,0.835,1.393,0.870,1.626,1.086,0.471,0.838,0.808,�k�k��,10.8,��
2018/03/06,11:10,0.836,1.395,0.869,1.624,1.084,0.469,0.839,0.809,�k�k��,8.8,��
2018/03/06,11:20,0.834,1.397,0.871,1.625,1.086,0.469,0.839,0.807,�k�k��,10.0,��
2018/03/06,11:30,0.835,1.397,0.871,1.628,1.084,0.470,0.838,0.809,�k�k��,8.8,��
2018/03/06,11:40,0.838,1.402,0.870,1.628,1.086,0.472,0.840,0.809,�k��,7.4,��
2018/03/06,11:50,0.838,1.401,0.872,1.631,1.086,0.470,0.839,0.810,�k��,8.5,��
2018/03/06,12:00,0.838,1.399,0.875,1.629,1.091,0.470,0.841,0.812,�k�k��,7.8,��
2018/03/06,12:10,0.837,1.399,0.873,1.633,1.102,0.472,0.841,0.812,�k�k��,8.2,��
2018/03/06,12:20,0.838,1.402,0.874,1.633,1.115,0.471,0.840,0.813,�k�k��,8.9,��
2018/03/06,12:30,0.838,1.401,0.874,1.633,1.111,0.471,0.841,0.813,�k�k��,8.6,��
2018/03/06,12:40,0.839,1.401,0.876,1.633,1.116,0.472,0.840,0.813,�k�k��,9.9,��
2018/03/06,12:50,0.841,1.402,0.874,1.635,1.113,0.471,0.841,0.813,�k�k��,8.2,��
2018/03/06,13:00,0.839,1.401,0.878,1.636,1.113,0.472,0.840,0.813,�k��,8.9,��
2018/03/06,13:10,0.840,1.406,0.877,1.637,1.115,0.472,0.841,0.812,�k�k��,9.1,��
2018/03/06,13:20,0.840,1.405,0.877,1.638,1.116,0.471,0.842,0.811,�k,9.6,��
2018/03/06,13:30,0.838,1.404,0.877,1.639,1.114,0.472,0.840,0.813,�k�k��,10.6,��
2018/03/06,13:40,0.839,1.404,0.876,1.639,1.115,0.471,0.839,0.810,�k�k��,10.9,��
2018/03/06,13:50,0.839,1.408,0.875,1.634,1.117,0.471,0.840,0.811,�k�k��,11.1,��
2018/03/06,14:00,0.840,1.406,0.875,1.641,1.117,0.472,0.840,0.813,�k�k��,9.6,��
2018/03/06,14:10,0.839,1.406,0.877,1.635,1.117,0.472,0.841,0.809,�k�k��,8.5,��
2018/03/06,14:20,0.841,1.407,0.877,1.637,1.117,0.471,0.841,0.808,�k�k��,9.5,��
2018/03/06,14:30,0.841,1.403,0.878,1.636,1.117,0.472,0.839,0.809,�k�k��,9.2,��
2018/03/06,14:40,0.842,1.411,0.878,1.640,1.116,0.472,0.839,0.810,�k�k��,10.2,��
2018/03/06,14:50,0.842,1.411,0.879,1.641,1.118,0.472,0.840,0.810,�k�k��,9.6,��
2018/03/06,15:00,0.843,1.413,0.877,1.643,1.118,0.473,0.840,0.811,�k�k��,9.2,��
2018/03/06,15:10,0.843,1.412,0.878,1.642,1.119,0.473,0.840,0.810,�k�k��,10.8,��
2018/03/06,15:20,0.841,1.411,0.879,1.639,1.119,0.474,0.840,0.809,�k�k��,9.9,��
2018/03/06,15:30,0.841,1.411,0.879,1.640,1.120,0.473,0.840,0.812,�k�k��,8.5,��
2018/03/06,15:40,0.842,1.411,0.878,1.641,1.120,0.474,0.842,0.813,�k�k��,9.8,��
2018/03/06,15:50,0.842,1.413,0.880,1.642,1.119,0.473,0.839,0.813,�k�k��,9.2,��
2018/03/06,16:00,0.843,1.413,0.878,1.639,1.123,0.473,0.840,0.814,�k�k��,9.1,��
2018/03/06,16:10,0.841,1.413,0.880,1.640,1.101,0.473,0.841,0.813,�k�k��,10.3,��
2018/03/06,16:20,0.842,1.412,0.875,1.640,1.088,0.472,0.842,0.813,�k�k��,10.2,��
2018/03/06,16:30,0.841,1.412,0.877,1.640,1.122,0.473,0.842,0.813,�k�k��,7.8,��
2018/03/06,16:40,0.844,1.414,0.879,1.642,1.122,0.474,0.843,0.813,�k�k��,7.4,��
2018/03/06,16:50,0.842,1.413,0.880,1.640,1.121,0.473,0.846,0.813,�k�k��,7.7,��
2018/03/06,17:00,0.842,1.415,0.879,1.640,1.123,0.472,0.844,0.814,�k�k��,8.9,��
2018/03/06,17:10,0.841,1.413,0.879,1.642,1.122,0.472,0.845,0.813,�k�k��,9.3,��
2018/03/06,17:20,0.840,1.415,0.878,1.640,1.122,0.470,0.845,0.812,�k�k��,9.1,��
2018/03/06,17:30,0.841,1.412,0.879,1.640,1.122,0.472,0.844,0.813,�k��,9.4,��
2018/03/06,17:40,0.839,1.417,0.876,1.641,1.123,0.473,0.843,0.813,�k��,9.0,��
2018/03/06,17:50,0.841,1.415,0.878,1.641,1.123,0.471,0.845,0.811,�k��,8.7,��
2018/03/06,18:00,0.839,1.415,0.875,1.644,1.124,0.469,0.843,0.813,�k��,9.3,��
2018/03/06,18:10,0.839,1.415,0.878,1.641,1.123,0.469,0.845,0.814,�k��,7.7,��
2018/03/06,18:20,0.840,1.415,0.876,1.644,1.122,0.471,0.842,0.816,�k��,7.3,��
2018/03/06,18:30,0.838,1.415,0.877,1.644,1.124,0.471,0.842,0.811,�k��,6.9,��
2018/03/06,18:40,0.840,1.416,0.878,1.643,1.123,0.470,0.843,0.813,�k��,7.0,��
2018/03/06,18:50,0.839,1.415,0.879,1.644,1.123,0.471,0.844,0.812,�k��,6.5,��
2018/03/06,19:00,0.839,1.414,0.876,1.643,1.123,0.471,0.845,0.811,�k��,6.6,��
2018/03/06,19:10,0.840,1.414,0.878,1.642,1.123,0.470,0.843,0.812,�k��,7.3,��
2018/03/06,19:20,0.839,1.414,0.879,1.642,1.123,0.472,0.843,0.814,�k��,8.7,��
2018/03/06,19:30,0.839,1.416,0.877,1.643,1.124,0.471,0.843,0.812,�k��,6.9,��
2018/03/06,19:40,0.838,1.417,0.880,1.641,1.123,0.471,0.841,0.812,�k��,9.4,��
2018/03/06,19:50,0.839,1.415,0.877,1.641,1.125,0.471,0.843,0.811,�k��,9.1,��
2018/03/06,20:00,0.838,1.415,0.877,1.640,1.123,0.471,0.843,0.811,�k��,8.0,��
2018/03/06,20:10,0.840,1.414,0.875,1.645,1.123,0.470,0.844,0.810,�k��,7.4,��
2018/03/06,20:20,0.837,1.416,0.874,1.641,1.123,0.469,0.843,0.812,�k��,7.6,��
2018/03/06,20:30,0.838,1.416,0.878,1.644,1.124,0.472,0.842,0.811,�k��,7.4,��
2018/03/06,20:40,0.838,1.415,0.875,1.641,1.123,0.470,0.843,0.812,�k��,6.5,��
2018/03/06,20:50,0.840,1.412,0.877,1.643,1.124,0.470,0.844,0.811,�k��,5.5,��
2018/03/06,21:00,0.836,1.414,0.876,1.641,1.122,0.472,0.842,0.811,�k��,5.9,��
2018/03/06,21:10,0.838,1.415,0.877,1.642,1.120,0.470,0.844,0.813,�k��,6.0,��
2018/03/06,21:20,0.838,1.415,0.876,1.641,1.125,0.470,0.842,0.813,�k��,5.8,��
2018/03/06,21:30,0.838,1.413,0.875,1.641,1.124,0.471,0.841,0.812,�k��,4.9,��
2018/03/06,21:40,0.836,1.413,0.875,1.644,1.123,0.471,0.842,0.810,�k��,4.4,��
2018/03/06,21:50,0.837,1.412,0.875,1.642,1.123,0.471,0.842,0.811,�k��,4.1,��
2018/03/06,22:00,0.838,1.412,0.875,1.641,1.123,0.471,0.842,0.812,�k��,4.6,��
2018/03/06,22:10,0.837,1.412,0.877,1.643,1.125,0.471,0.842,0.811,�k��,4.4,��
2018/03/06,22:20,0.838,1.413,0.876,1.641,1.123,0.471,0.842,0.812,�k��,5.6,��
2018/03/06,22:30,0.835,1.412,0.878,1.644,1.124,0.470,0.842,0.812,�k��,5.2,��
2018/03/06,22:40,0.836,1.413,0.876,1.642,1.124,0.469,0.841,0.810,�k��,5.2,��
2018/03/06,22:50,0.836,1.413,0.878,1.643,1.123,0.469,0.843,0.811,�k��,4.9,��
2018/03/06,23:00,0.836,1.415,0.877,1.643,1.122,0.470,0.842,0.812,���k��,5.3,��
2018/03/06,23:10,0.837,1.414,0.876,1.642,1.123,0.470,0.841,0.811,���k��,6.3,��
2018/03/06,23:20,0.835,1.412,0.875,1.642,1.120,0.471,0.842,0.812,���k��,6.7,��
2018/03/06,23:30,0.837,1.414,0.875,1.642,1.123,0.469,0.843,0.812,���k��,7.4,��
2018/03/06,23:40,0.834,1.412,0.876,1.642,1.121,0.470,0.841,0.811,���k��,5.8,��
2018/03/06,23:50,0.837,1.413,0.875,1.641,1.123,0.470,0.841,0.812,�k��,5.4,��
